Find Starlink 32723

NORAD ID: 62449 Int'l Des: 2024-251 Owner: SPXS Country: US Constellation: starlink operational
LEOCIRCULAR

当前视图

正在加载3D地球...

About Starlink 32723

Starlink 32723 (NORAD 62449) is a starlink constellation satellite (v2 mini) launched Dec 29, 2024 by SPXS of US. It operates in LEO, CIRCULAR orbit with a mass of 730.00 kg.

关于 Starlink 32723

正在加载描述...

即将过境

Passes for default location (London). Set your location on the main map for personalized predictions.

高度历史

Loading altitude history...

两行轨道根数

1 62449U 24251T 26173.51809438 .00014580 00000-0 44183-3 0 9997
2 62449 53.1588 207.9947 0001074 95.8825 264.2300 15.34398474 83842
Epoch: Jun 22, 2026 • Age: 35 hours

当前状态

高度 466.0 km
速度 7.64 km/s
星下点 42.58°N, 75.5°E
发射日期 Dec 29, 2024
运行时间 1.4 years
类型 internet

技术详情

分类 Payload
质量 730.00 kg
干质量 700.00 kg
总质量 730.00 kg
长度 0.30 m
直径 4.10 m
跨度 29.00 m
形状 Box + pan
制造商 SPXS
平台类型 Starlink V2M
阶段状态 In Orbit
所有者/国家 SPXS/US

Most Searched